Theta_e
313 313 313 314 314 315 315 315 314 314 312 314 314 314 315 315 314 314 314 315 315 315 315 313 313 314 318 327 330 331 332 334 332 325 326 328 328 329 329 329 329 328 328 327
313 312 313 314 314 313 313 314 314 312 312 313 314 314 314 314 314 314 314 315 315 315 315 315 314 313 312 313 316 324 329 332 332 325 323 325 326 327 328 330 330 330 329 329
312 312 313 313 313 313 313 313 313 313 312 312 312 313 314 314 313 313 313 314 314 315 315 315 314 314 314 313 313 313 314 321 329 326 326 331 332 329 331 329 329 330 331 330
312 311 313 313 312 312 312 312 313 312 312 312 313 313 315 314 314 312 312 312 313 313 313 313 313 313 312 313 312 312 312 313 319 332 327 328 329 332 324 325 325 326 331 332
312 311 312 313 312 312 312 312 312 313 313 313 313 313 313 313 313 314 314 313 313 312 311 312 311 310 311 311 311 311 311 311 311 316 328 326 333 333 329 327 329 327 330 332
312 308 312 312 311 312 311 312 312 312 312 313 312 313 313 314 313 314 313 312 311 310 311 312 313 313 312 312 311 311 310 311 311 310 316 325 326 331 332 330 331 326 330 329
310 310 309 310 311 311 312 312 312 312 312 312 311 313 314 314 313 312 312 311 311 311 313 313 313 313 313 312 312 312 312 311 310 311 311 320 327 330 332 330 330 328 326 325
310 310 310 309 312 312 312 312 314 317 314 313 309 311 313 314 313 310 309 309 312 312 313 314 314 314 315 315 315 315 314 314 313 312 311 320 323 326 327 326 326 325 325 324
311 310 311 310 310 312 311 313 313 312 309 314 313 312 313 314 312 311 310 310 312 312 312 313 314 314 314 315 315 316 316 315 314 312 311 318 322 326 324 324 324 324 323 323
311 311 310 309 310 311 312 312 311 312 322 314 311 313 314 313 313 313 311 311 312 312 312 312 312 313 313 313 314 314 314 315 316 315 313 313 315 322 322 321 322 322 322 323
311 311 312 310 310 310 310 312 311 311 312 314 313 312 313 314 314 313 313 313 313 312 311 311 312 312 313 313 313 313 313 314 314 317 319 318 317 320 322 321 322 322 322 323
311 312 313 311 311 311 311 311 312 312 312 311 313 314 311 311 312 312 314 313 313 312 311 311 311 312 313 313 313 313 313 313 313 314 317 320 323 322 321 323 323 320 321 317
311 318 318 314 311 311 311 311 312 312 313 317 314 313 313 311 310 311 313 312 311 311 312 312 312 312 312 312 312 312 312 312 312 313 314 315 316 316 316 314 313 312 311 311
310 315 313 313 313 312 312 311 311 311 315 313 314 313 313 313 313 312 312 311 311 310 311 311 311 312 311 311 311 311 311 311 311 312 312 312 312 311 311 311 311 311 311 311
311 314 312 312 314 316 314 313 312 311 312 313 312 312 313 313 313 313 313 312 312 310 310 311 311 311 310 310 310 310 310 310 310 310 310 310 310 311 311 311 311 310 310 309
312 314 312 312 312 313 314 313 313 312 311 312 312 312 313 312 312 313 313 313 313 311 311 311 311 310 309 309 310 310 310 310 310 310 309 310 310 310 309 309 308 307 307 307
312 312 314 314 313 314 313 312 313 312 311 311 311 312 312 312 312 312 313 313 313 312 311 310 310 309 309 309 309 309 309 308 309 309 309 308 307 306 306 306 306 306 305 304
309 312 315 317 314 316 313 312 311 313 312 312 312 312 313 312 311 311 311 313 312 312 312 311 309 309 308 308 308 308 308 308 308 306 305 305 304 303 303 303 303 303 302 302
313 313 315 316 317 316 315 309 312 312 312 312 312 312 312 311 310 310 310 310 310 312 311 310 309 308 308 307 307 307 306 305 304 303 303 302 302 302 301 300 300 299 298 298
310 311 314 314 318 318 316 311 311 312 315 314 313 313 313 311 312 312 311 310 309 310 310 310 309 308 307 306 305 303 302 302 302 301 300 299 299 299 299 298 298 297 296 296
311 311 314 316 318 318 310 306 311 315 317 307 311 312 312 311 311 311 311 309 309 308 309 308 307 306 305 303 302 302 302 301 299 298 298 298 298 298 297 297 296 296 296 295
312 313 313 314 316 317 304 308 314 311 304 306 306 308 310 310 309 309 309 308 308 308 307 306 306 304 302 301 301 301 300 298 297 297 297 297 297 296 296 296 296 296 296 295
314 313 314 314 316 305 306 308 308 305 305 305 306 307 308 308 307 307 306 306 305 305 304 302 302 301 300 300 300 298 297 297 296 296 296 296 296 296 296 296 295 295 293 292
305 302 310 311 307 305 304 305 307 306 304 304 305 306 307 307 307 306 305 304 303 302 302 301 300 300 299 298 297 296 296 295 295 295 295 295 295 295 294 292 292 291 291 291
304 303 306 307 301 301 302 305 305 306 304 305 305 305 305 306 306 306 305 303 302 301 300 299 299 298 296 296 295 295 294 294 294 294 293 293 292 292 292 291 291 291 291 290
298 304 307 310 305 306 304 304 303 304 305 304 304 305 305 305 306 305 304 303 301 299 298 298 297 295 295 295 294 294 295 293 292 292 291 291 291 290 290 290 290 289 289 289
Wind_Speed
12 10 14 16 15 11 9 11 11 6 2 7 12 12 14 16 16 16 17 17 18 17 14 16 19 21 24 24 25 26 27 27 27 31 33 34 34 32 30 28 26 25 25 24
6 14 14 14 15 7 6 10 9 5 4 2 6 12 14 17 19 20 21 22 22 20 17 15 17 19 22 26 29 28 29 28 32 34 35 35 34 35 33 32 32 31 29 29
14 7 16 9 9 12 11 11 7 6 5 4 6 15 15 14 20 24 24 24 23 21 19 17 18 21 22 25 27 28 29 32 32 35 34 34 34 35 36 37 36 35 34 34
12 6 11 13 15 14 14 11 9 5 3 6 1 7 5 8 12 11 20 23 23 22 23 22 21 23 24 27 29 30 30 32 33 33 36 38 39 37 40 38 37 34 34 35
7 11 14 17 18 16 7 5 9 6 7 7 9 7 9 3 9 14 17 18 16 15 14 12 17 21 24 27 30 31 31 33 36 37 39 36 39 39 35 35 33 33 31 34
1 4 8 9 4 13 13 10 7 4 5 7 13 9 9 12 11 10 4 10 10 9 10 12 12 13 17 20 22 22 26 29 28 34 37 37 35 36 33 33 34 31 29 28
5 6 4 8 10 7 12 13 5 5 5 6 3 6 16 4 6 3 5 9 9 8 8 7 6 6 6 8 12 14 15 19 24 26 30 32 31 28 32 31 32 32 29 26
14 10 13 10 12 11 20 19 8 7 6 5 3 9 6 7 3 2 7 7 6 8 9 9 7 6 5 4 5 8 10 12 15 18 21 23 24 28 26 28 30 28 26 24
16 13 16 16 5 14 15 14 12 3 2 1 7 9 12 11 9 12 13 10 8 8 10 10 9 7 6 5 4 5 7 10 11 14 16 19 21 25 27 26 24 24 24 23
6 8 9 7 3 11 10 11 5 5 6 6 10 13 12 4 13 11 12 14 11 11 12 12 10 10 8 6 6 6 7 8 9 11 15 18 19 21 21 22 22 21 19 19
8 10 4 7 15 20 7 12 10 8 10 8 7 10 7 11 12 13 11 10 10 10 10 11 11 9 7 7 7 7 7 8 8 7 8 9 11 13 14 16 16 17 17 15
21 7 6 13 3 8 17 21 22 9 11 8 7 12 5 3 1 5 10 10 10 13 13 12 11 9 10 10 9 10 9 8 7 6 7 7 9 11 12 13 14 13 12 10
15 5 4 2 4 8 9 16 17 18 0 9 9 13 4 2 3 2 10 11 12 12 13 14 13 12 11 11 10 9 9 8 7 6 6 7 9 9 9 8 7 6 6 7
20 3 16 18 15 7 9 16 17 16 10 17 12 21 14 6 6 8 9 10 11 12 13 13 12 11 12 10 9 8 8 8 8 9 10 10 11 11 9 8 7 6 8 10
11 10 11 20 9 3 11 15 21 18 22 19 25 23 26 14 11 12 12 12 14 16 17 15 15 14 14 12 11 10 10 11 11 11 11 11 10 9 7 6 6 7 10 13
8 3 12 6 14 12 4 15 22 25 26 25 27 23 17 12 16 18 16 17 20 20 20 19 19 18 16 15 14 13 13 14 13 12 11 9 8 6 5 5 5 7 9 9
10 6 4 12 7 5 6 28 18 20 25 24 24 36 12 13 6 14 20 25 24 24 23 23 22 19 16 15 15 16 15 14 13 12 10 9 8 7 5 5 5 4 5 7
8 7 3 3 4 9 15 11 23 22 21 23 26 20 7 10 17 26 27 25 26 27 29 26 22 20 19 20 19 17 16 16 14 13 12 10 9 7 5 3 4 5 7 9
11 8 5 7 11 11 16 6 9 15 29 25 23 18 20 17 13 16 23 27 28 28 30 24 22 21 21 20 19 18 18 16 15 13 10 8 6 4 4 4 5 6 8 10
5 8 10 6 8 12 4 13 13 7 20 9 22 22 20 10 10 13 23 25 26 26 24 27 25 22 20 20 19 18 17 15 13 10 8 6 5 3 3 5 6 8 10 13
6 8 16 9 6 6 2 8 17 10 4 2 10 13 12 10 17 7 11 18 20 23 24 24 23 23 22 21 20 19 16 14 11 9 7 5 4 5 7 8 9 11 15 18
10 8 6 4 6 13 11 7 10 2 2 2 2 5 10 12 8 14 13 15 19 23 26 26 25 24 23 22 21 18 15 12 10 7 5 5 7 8 9 11 12 15 18 20
5 3 5 7 4 2 22 2 11 5 4 2 1 3 9 14 12 15 15 17 20 24 25 25 25 26 24 22 20 17 14 11 8 7 7 8 9 11 12 15 17 19 20 22
3 2 2 2 3 3 15 11 11 7 5 4 2 2 7 10 14 17 18 21 24 25 26 26 25 24 24 22 19 15 11 9 7 8 9 11 12 14 15 16 17 18 20 22
1 8 4 3 1 1 8 21 15 13 9 5 4 4 7 11 14 17 20 22 24 26 27 26 25 24 21 18 15 11 8 9 10 11 12 12 13 14 16 17 17 18 19 21
6 4 6 4 9 3 3 14 16 17 13 7 6 7 10 13 15 18 22 25 28 29 28 27 23 19 16 14 11 8 10 13 14 13 13 13 13 12 13 14 14 16 17 19
Wind_Direction
186 199 207 204 218 249 242 214 206 201 130 220 229 245 253 247 227 250 247 244 246 244 244 229 228 227 223 222 220 218 221 224 224 233 231 232 237 236 236 238 241 241 242 240
169 217 207 222 222 213 194 214 215 123 150 244 251 258 259 256 248 242 247 246 241 243 239 228 222 229 230 231 232 230 227 226 233 238 240 241 242 244 243 243 241 242 243 244
199 188 216 190 192 206 223 228 209 274 161 225 282 268 241 243 245 240 239 247 250 243 237 229 235 233 234 235 238 240 240 235 230 244 240 238 244 248 246 246 244 240 242 246
225 136 179 194 209 205 220 224 246 182 232 259 256 279 206 214 232 226 238 241 245 244 238 233 228 234 234 237 241 240 240 237 235 232 242 236 236 235 243 248 249 248 246 248
179 169 177 197 202 199 221 163 211 216 242 300 222 270 256 113 254 248 235 235 230 231 227 228 236 240 243 244 244 244 243 243 239 234 239 238 235 238 242 247 249 252 249 250
232 354 206 207 105 195 132 125 132 179 232 252 243 227 254 236 226 245 204 186 190 205 219 228 241 249 246 241 241 241 240 239 240 235 233 238 239 234 232 237 245 250 251 251
165 187 160 158 124 154 178 170 183 218 207 245 17 215 253 259 219 230 215 179 174 192 197 205 211 218 230 232 234 236 238 238 241 238 237 236 231 233 233 233 241 245 250 255
199 199 186 184 205 174 194 189 190 199 208 212 134 232 245 236 262 189 204 211 211 186 193 190 202 203 206 213 220 222 226 230 233 236 234 228 232 227 234 235 240 249 255 257
198 222 159 179 179 162 199 221 237 100 52 232 210 248 274 226 231 223 218 215 226 216 206 200 201 210 219 221 236 243 246 242 236 229 222 216 223 227 232 238 242 245 248 250
179 194 194 168 160 233 209 174 177 217 192 231 242 238 249 182 223 215 218 220 226 221 214 213 212 212 217 227 241 250 253 256 253 245 238 232 227 224 227 232 238 242 245 249
223 221 145 158 210 189 180 195 219 223 226 221 248 246 288 247 213 223 209 192 196 210 214 215 217 219 225 234 235 239 243 243 242 241 234 228 225 223 220 224 229 234 234 235
209 214 175 201 134 273 232 215 205 204 213 237 265 255 111 85 149 224 186 180 181 192 200 210 215 219 224 227 231 236 240 243 240 232 226 212 198 198 202 203 211 218 222 229
180 180 143 227 254 213 227 230 232 230 230 200 209 244 111 115 203 191 188 181 191 201 203 209 209 208 212 215 216 223 226 224 223 213 202 196 190 186 188 184 186 195 216 241
173 139 209 216 227 169 203 225 222 236 228 238 227 249 222 196 217 198 193 188 187 194 198 202 201 201 205 201 202 204 201 200 191 180 173 169 166 164 169 180 198 220 248 262
188 209 213 240 258 301 197 201 212 211 224 222 238 236 249 237 206 210 209 198 198 204 207 205 208 206 204 199 194 192 186 182 177 174 177 177 178 182 192 216 246 263 272 277
205 239 217 248 238 230 260 223 208 213 221 226 239 247 248 264 233 212 209 209 209 213 213 211 212 211 204 198 195 190 188 187 185 189 194 191 190 197 218 244 264 273 275 277
166 141 137 239 160 98 290 229 220 224 224 222 230 242 236 239 195 215 211 211 216 218 219 216 216 211 206 203 195 193 194 195 192 195 198 193 191 194 200 218 236 257 270 277
150 147 131 154 94 217 249 222 223 223 232 228 245 251 233 250 220 225 231 223 230 234 231 222 212 206 201 200 198 196 195 193 189 188 187 187 186 193 201 225 267 284 287 294
200 164 179 200 210 286 273 194 193 205 242 232 243 243 242 239 257 242 229 237 239 235 230 221 209 204 199 197 196 194 189 186 182 184 185 188 195 215 250 282 295 302 308 313
188 201 190 168 218 224 328 177 194 157 259 211 227 236 238 186 235 251 235 231 227 227 227 210 203 198 194 190 188 185 182 179 180 186 192 200 210 232 257 278 291 300 306 311
171 185 199 198 223 271 119 142 141 171 252 230 202 221 207 196 228 252 236 215 219 222 209 200 195 192 188 185 183 181 182 183 188 194 201 216 242 264 281 290 299 305 310 314
178 164 183 181 209 242 146 129 179 187 86 102 148 208 200 203 206 216 205 196 197 196 190 194 191 187 184 183 184 184 184 187 192 201 221 245 258 270 280 290 299 306 310 311
171 204 166 206 185 63 175 114 188 159 144 122 114 180 182 183 182 186 189 189 185 187 187 185 187 182 181 182 182 183 184 190 205 228 244 258 271 282 290 297 302 306 307 308
190 195 213 202 152 144 201 213 200 205 166 158 162 193 190 188 186 187 187 187 188 188 188 186 185 184 182 180 181 184 192 209 226 249 263 273 282 291 296 300 305 309 310 311
49 150 155 268 192 179 225 222 225 218 204 223 241 247 221 209 201 199 196 194 192 192 189 187 186 184 179 178 181 189 213 244 255 264 268 275 282 290 297 302 307 312 314 316
192 184 190 229 174 158 98 214 227 230 238 253 269 276 248 218 215 208 206 204 199 194 191 187 184 182 183 190 196 223 253 257 258 261 268 278 285 292 298 304 311 316 317 319